Skip Page Navigation
NASA JPL Caltech
NASA Logo - Jet Propulsion Laboratory + View the NASA Portal
+ Center for Near-Earth Object Studies
JPL Home Earth Solar System Stars & Galaxies Technology
JPL Solar System Dynamics
BODIES ORBITS EPHEMERIDES TOOLS PHYSICAL DATA DISCOVERY FAQ SITE MAP
JPL Small-Body Database Browser
Search: [ help ]  
59234 (1999 CR1)
Classification: Main-belt Asteroid          SPK-ID: 2059234
Ephemeris | Orbit Diagram | Orbital Elements | Mission Design | Physical Parameters | Discovery Circumstances ]

[ show orbit diagram ]
Orbital Elements at Epoch 2459000.5 (2020-May-31.0) TDB
Reference: JPL 24 (heliocentric ecliptic J2000)
 Element Value Uncertainty (1-sigma)   Units 
e .05996300376594045 4.6145e-08  
a 2.655926325883196 1.5986e-08 au
q 2.496669005602202 1.2364e-07 au
i 14.41433721644851 4.9609e-06 deg
node 349.7980624162157 1.7158e-05 deg
peri 204.5638888576374 4.3523e-05 deg
M 291.2876021742758 4.149e-05 deg
tp 2459302.255410588087
(2021-Mar-28.75541059)
0.00018251 TDB
period 1580.965753621866
4.33
1.4274e-05
3.908e-08
d
yr
n .2277089172711482 2.0559e-09 deg/d
Q 2.81518364616419 1.6945e-08 au
  Orbit Determination Parameters
   # obs. used (total)      869  
   data-arc span      9991 days (27.35 yr)  
   first obs. used      1992-09-24  
   last obs. used      2020-02-01  
   planetary ephem.      DE431  
   SB-pert. ephem.      SB431-N16  
   condition code      0  
   norm. resid. RMS      .53634  
   source      ORB  
   producer      Otto Matic  
   solution date      2020-Feb-23 12:45:04  

Additional Information
 Earth MOID = 1.50413 au 
 Jupiter MOID = 2.16509 au 
 T_jup = 3.341 
[ show covariance matrix ]

Ephemeris | Orbit Diagram | Orbital Elements | Mission Design | Physical Parameters | Discovery Circumstances ]

Physical Parameter Table
Parameter Symbol Value Units Sigma Reference Notes
absolute magnitude H 14.9   n/a MPO452972  

59234 (1999 CR1)          Discovered 1999-Feb-07 by Kobayashi, T. at Oizumi
Reference: 20030614/Numbers.arcLast Updated: 2004-04-19

Alternate Designations
 1999 CR1 = 2001 RF67 
Ephemeris | Orbit Diagram | Orbital Elements | Mission Design | Physical Parameters | Discovery Circumstances ]
ABOUT SSD CREDITS/AWARDS PRIVACY/COPYRIGHT GLOSSARY LINKS
FirstGov 2020-Aug-03 18:14 UT
(server date/time)  
NASA Home Page
Site Manager:   Ryan S. Park
Webmaster  Alan B. Chamberlin